This demonstration page uses our WeatherBlox Daily Observations layout. Learn more.

Hourly Observations for February 20, 2020

Temp ( °F °C ) Dew Point ( °F °C ) Humidity (%) Winds ( mph kmh ) Pressure ( in mb ) Visibility ( mi km ) Precip ( " mm )
12:15 am 00:15 Clear 11 -11.5 8 -13.1 88 88 N 10 17 30.87 1046 10 16.0934 0 0
12:35 am 00:35 Clear 10 -12 8 -13.6 88 88 N 12 19 30.88 1046 10 16.0934 0 0
12:55 am 00:55 Clear 10 -12.5 7 -14 89 89 N 7 11 30.89 1046 10 16.0934 0 0
1:15 am 01:15 Clear 9 -12.6 6 -14.3 87 87 N 6 9 30.9 1046 10 16.0934 0 0
1:35 am 01:35 Clear 9 -13 6 -14.6 88 88 N 7 11 30.9 1046 10 16.0934 0 0
1:55 am 01:55 Clear 8 -13.4 5 -15.2 86 86 NNW 5 7 30.9 1047 10 16.0934 0 0
2:15 am 02:15 Clear 7 -14 4 -15.6 88 88 N 6 9 30.91 1047 10 16.0934 0 0
2:35 am 02:35 Clear 6 -14.5 3 -16.2 87 87 NNW 8 13 30.92 1047 10 16.0934 0 0
2:55 am 02:55 Clear 5 -15.1 2 -16.7 88 88 NNW 9 15 30.92 1047 10 16.0934 0 0
3:15 am 03:15 Clear 4 -15.6 1 -17.3 87 87 NNW 8 13 30.93 1047 10 16.0934 0 0
3:35 am 03:35 Clear 4 -15.7 1 -17.4 87 87 NNW 9 15 30.93 1047 10 16.0934 0 0
3:55 am 03:55 Clear 2 -16.5 -1 -18.3 86 86 NNW 8 13 30.94 1048 10 16.0934 0 0
4:15 am 04:15 Clear 2 -16.7 -1 -18.5 86 86 NNW 9 15 30.94 1048 10 16.0934 0 0
4:35 am 04:35 Clear 3 -16.2 0 -18 86 86 NNW 8 13 30.94 1048 10 16.0934 0 0
4:55 am 04:55 Clear 1 -17 -2 -18.8 86 86 NNW 7 11 30.95 1048 10 16.0934 0 0
5:15 am 05:15 Clear 0 -18 -4 -19.8 86 86 WNW 5 7 30.97 1049 10 16.0934 0 0
5:35 am 05:35 Clear -1 -18.4 -4 -20.1 87 87 NW 7 11 30.98 1049 10 16.0934 0 0
5:55 am 05:55 Clear -1 -18.5 -5 -20.3 86 86 NW 5 7 30.98 1049 10 16.0934 0 0
6:15 am 06:15 Clear 0 -18 -4 -19.8 86 86 WNW 6 9 30.98 1049 10 16.0934 0 0
6:35 am 06:35 Clear 0 -18 -4 -19.9 85 85 NW 6 9 30.98 1049 10 16.0934 0 0
6:55 am 06:55 Clear -1 -18.5 -5 -20.5 84 84 WNW 7 11 30.99 1049 10 16.0934 0 0
7:15 am 07:15 Clear -1 -18.5 -5 -20.3 86 86 W 6 9 31 1050 10 16.0934 0 0
7:35 am 07:35 Sunny -1 -18.6 -5 -20.6 84 84 WNW 5 7 31 1050 10 16.0934 0 0
7:55 am 07:55 Sunny -1 -18.2 -4 -20.1 85 85 W 5 7 31 1050 10 16.0934 0 0
8:15 am 08:15 Sunny 1 -17.3 -3 -19.2 85 85 WNW 3 6 31 1050 10 16.0934 0 0
8:35 am 08:35 Sunny 4 -15.7 1 -17.5 86 86 Calm 30.99 1049 10 16.0934 0 0
8:55 am 08:55 Sunny 5 -14.9 2 -16.7 86 86 W 3 6 30.99 1050 10 16.0934 0 0
9:15 am 09:15 Sunny 8 -13.2 4 -15.3 84 84 Calm 30.97 1049 10 16.0934 0 0
9:35 am 09:35 Sunny 12 -11.1 7 -14.1 79 79 Calm 30.95 1048 10 16.0934 0 0
9:55 am 09:55 Sunny 16 -9.1 4 -15.3 61 61 WSW 5 7 30.93 1047 10 16.0934 0 0
10:15 am 10:15 Sunny 17 -8.2 6 -14.2 62 62 SW 6 9 30.91 1047 10 16.0934 0 0
10:35 am 10:35 Sunny 18 -8 5 -15.2 57 57 SW 5 7 30.91 1047 10 16.0934 0 0
10:55 am 10:55 Sunny 19 -7.3 8 -13.4 62 62 SW 7 11 30.9 1046 10 16.0934 0 0
11:15 am 11:15 Sunny 20 -6.8 9 -12.8 63 63 SW 7 11 30.9 1046 10 16.0934 0 0
11:35 am 11:35 Sunny 20 -6.5 10 -12.1 65 65 SW 8 13 30.89 1046 10 16.0934 0 0
11:55 am 11:55 Sunny 21 -6.1 11 -11.8 64 64 SW 12 19 30.89 1046 10 16.0934 0 0
12:15 pm 12:15 Sunny 22 -5.6 13 -10.6 68 68 SW 9 15 30.87 1045 10 16.0934 0 0
12:35 pm 12:35 Sunny 23 -5 15 -9.6 70 70 SW 9 15 30.86 1045 10 16.0934 0 0
12:55 pm 12:55 Sunny 24 -4.4 17 -8.4 74 74 SW 8 13 30.84 1044 10 16.0934 0 0
1:15 pm 13:15 Sunny 26 -3.5 18 -7.6 74 74 W 10 17 30.81 1043 10 16.0934 0 0
1:35 pm 13:35 Sunny 27 -2.9 19 -7 74 74 WSW 10 17 30.8 1043 10 16.0934 0 0
1:55 pm 13:55 Sunny 28 -2.2 21 -6.2 74 74 W 8 13 30.78 1042 10 16.0934 0 0
2:15 pm 14:15 Sunny 29 -1.8 22 -5.8 74 74 SW 8 13 30.76 1042 10 16.0934 0 0
2:35 pm 14:35 Sunny 30 -1.3 22 -5.8 72 72 W 9 15 30.76 1042 10 16.0934 0 0
2:55 pm 14:55 Sunny 31 -0.5 22 -5.3 70 70 WSW 8 13 30.74 1041 10 16.0934 0 0
3:15 pm 15:15 Sunny 32 0 22 -5.3 68 68 WSW 9 15 30.73 1041 10 16.0934 0 0
3:35 pm 15:35 Sunny 32 0 21 -6.1 64 64 WSW 8 13 30.73 1041 10 16.0934 0 0
3:55 pm 15:55 Sunny 32 0.1 20 -6.5 62 62 SW 9 15 30.73 1040 10 16.0934 0 0
4:15 pm 16:15 Sunny 32 0.1 19 -7 59 59 SW 7 11 30.72 1040 10 16.0934 0 0
4:35 pm 16:35 Sunny 33 0.3 19 -7.2 58 58 SW 12 19 30.71 1040 10 16.0934 0 0
4:55 pm 16:55 Sunny 32 0.2 18 -7.6 56 56 SW 8 13 30.71 1040 10 16.0934 0 0
5:15 pm 17:15 Sunny 32 0.1 19 -7.2 58 58 SW 9 15 30.71 1040 10 16.0934 0 0
5:35 pm 17:35 Sunny 32 0 19 -7.3 58 58 SW 7 11 30.7 1040 10 16.0934 0 0
5:55 pm 17:55 Sunny 31 -0.3 19 -7.4 59 59 SW 7 11 30.7 1040 10 16.0934 0 0
6:15 pm 18:15 Sunny 30 -1 19 -7.5 62 62 SSW 8 13 30.71 1040 10 16.0934 0 0
6:35 pm 18:35 Clear 28 -2 18 -7.7 65 65 SSW 8 13 30.72 1040 10 16.0934 0 0
6:55 pm 18:55 Clear 28 -2.5 18 -8 66 66 S 8 13 30.72 1040 10 16.0934 0 0
7:15 pm 19:15 Clear 27 -3 18 -8 69 69 SSW 9 15 30.73 1041 10 16.0934 0 0
7:35 pm 19:35 Clear 26 -3.5 18 -8 71 71 SSW 8 13 30.73 1041 10 16.0934 0 0
7:55 pm 19:55 Clear 25 -3.8 17 -8.1 72 72 SSW 8 13 30.73 1041 10 16.0934 0 0
8:15 pm 20:15 Clear 24 -4.3 17 -8.3 74 74 SSW 10 17 30.74 1041 10 16.0934 0 0
8:35 pm 20:35 Clear 24 -4.5 18 -8 77 77 SSW 9 15 30.74 1041 10 16.0934 0 0
8:55 pm 20:55 Clear 23 -4.8 18 -7.8 80 80 SSW 8 13 30.73 1041 10 16.0934 0 0
9:15 pm 21:15 Clear 23 -4.8 19 -7.5 82 82 SSW 9 15 30.73 1041 10 16.0934 0 0
9:35 pm 21:35 Clear 24 -4.7 19 -7.3 82 82 SSW 9 15 30.73 1041 10 16.0934 0 0
9:55 pm 21:55 Clear 23 -5 19 -7.5 83 83 SSW 9 15 30.74 1041 10 16.0934 0 0
10:15 pm 22:15 Clear 23 -5 19 -7.3 84 84 SSW 10 17 30.74 1041 10 16.0934 0 0
10:35 pm 22:35 Clear 23 -5 19 -7.3 84 84 SSW 10 17 30.74 1041 10 16.0934 0 0
10:55 pm 22:55 Clear 23 -5.2 19 -7.5 84 84 SSW 9 15 30.73 1041 10 16.0934 0 0
11:15 pm 23:15 Clear 22 -5.5 19 -7.5 86 86 SW 8 13 30.73 1041 10 16.0934 0 0
11:35 pm 23:35 Clear 22 -5.6 19 -7.5 87 87 SSW 8 13 30.72 1040 10 16.0934 0 0
11:55 pm 23:55 Clear 22 -5.5 19 -7.5 86 86 SSW 10 17 30.71 1040 10 16.0934 0 0

Powered by AerisWeather